CW6245 Weather Reports


time (UTC)temp
C
wind
direction
speed
KPH
gust
KPH
rain 1hr
cm
rain 24hr
cm
rain mn
cm
humidity
%
barometer
mb
20260831063733 13 199 11.3 19.3 0.00 0.00 0.00 63 733.5
20260831063230 13 196 11.3 19.3 0.00 0.00 0.00 64 733.5
20260831062730 13 196 9.7 19.3 0.00 0.00 0.00 64 733.5
20260831062230 13 197 11.3 19.3 0.00 0.00 0.00 63 733.5
20260831061730 13 194 11.3 22.5 0.00 0.00 0.00 63 733.5
20260831061233 13 199 9.7 19.3 0.00 0.00 0.00 63 733.5
20260831060733 13 197 11.3 17.7 0.00 0.00 0.00 63 733.5
20260831060230 13 197 9.7 19.3 0.00 0.00 0.00 63 733.5
20260831055730 13 198 9.7 20.9 0.00 0.00 0.00 63 733.5
20260831055230 13 195 11.3 19.3 0.00 0.00 0.00 63 733.5
20260831054730 13 199 11.3 22.5 0.00 0.00 0.00 63 733.5
20260831054231 13 200 11.3 19.3 0.00 0.00 0.00 63 733.5
20260831053730 13 197 11.3 19.3 0.00 0.00 0.00 63 733.5
20260831053230 13 198 11.3 19.3 0.00 0.00 0.00 63 733.5
20260831052730 13 202 9.7 17.7 0.00 0.00 0.00 63 733.5
20260831052230 13 198 9.7 17.7 0.00 0.00 0.00 63 733.8
20260831051730 13 197 9.7 17.7 0.00 0.00 0.00 63 733.5
20260831051230 13 196 9.7 16.1 0.00 0.00 0.00 62 733.8
20260831050730 14 199 8.0 14.5 0.00 0.00 0.00 62 733.8
20260831050233 14 200 8.0 16.1 0.00 0.00 0.00 62 733.8
20260831045733 14 204 6.4 12.9 0.00 0.00 0.00 62 733.8
20260831045230 14 203 6.4 16.1 0.00 0.00 0.00 62 733.8
20260831044733 14 202 6.4 12.9 0.00 0.00 0.00 61 733.8
20260831044230 14 202 6.4 14.5 0.00 0.00 0.00 61 733.8
20260831043730 14 201 6.4 12.9 0.00 0.00 0.00 60 733.8
20260831043230 14 201 6.4 11.3 0.00 0.00 0.00 58 733.8
20260831042736 14 197 6.4 11.3 0.00 0.00 0.00 56 733.5
20260831042233 15 203 6.4 12.9 0.00 0.00 0.00 55 733.5
20260831041733 15 210 4.8 9.7 0.00 0.00 0.00 55 733.5
20260831041233 15 203 4.8 9.7 0.00 0.00 0.00 54 733.5
20260831040733 15 204 4.8 9.7 0.00 0.00 0.00 53 733.5
20260831040235 15 203 4.8 9.7 0.00 0.00 0.00 53 733.5
20260831035730 15 196 4.8 11.3 0.00 0.00 0.00 53 733.5
20260831035230 15 204 6.4 11.3 0.00 0.00 0.00 52 733.5
20260831034733 15 201 6.4 11.3 0.00 0.00 0.00 52 733.5
20260831034233 15 203 6.4 11.3 0.00 0.00 0.00 51 733.5
20260831033730 15 196 6.4 12.9 0.00 0.00 0.00 51 733.1
20260831033233 15 191 9.7 12.9 0.00 0.00 0.00 53 733.1
20260831032730 15 186 9.7 12.9 0.00 0.00 0.00 52 733.1
20260831032230 15 189 9.7 11.3 0.00 0.00 0.00 51 733.1
20260831031730 15 194 6.4 11.3 0.00 0.00 0.00 50 733.1
20260831031233 15 193 6.4 11.3 0.00 0.00 0.00 50 733.1
20260831030730 15 200 6.4 12.9 0.00 0.00 0.00 51 733.1
20260831030230 15 191 6.4 12.9 0.00 0.00 0.00 52 733.1
20260831025733 15 185 8.0 12.9 0.00 0.00 0.00 51 733.1
20260831025230 15 185 8.0 14.5 0.00 0.00 0.00 51 733.1
20260831024736 15 192 9.7 14.5 0.00 0.00 0.00 51 733.1
20260831024230 15 183 11.3 14.5 0.00 0.00 0.00 57 733.1
20260831023730 15 183 9.7 14.5 0.00 0.00 0.00 61 733.1
20260831023233 15 173 11.3 14.5 0.00 0.00 0.00 59 733.1
20260831022730 15 175 8.0 11.3 0.00 0.00 0.00 65 733.1
20260831022230 15 176 8.0 11.3 0.00 0.00 0.00 64 733.1
20260831021730 15 174 9.7 11.3 0.00 0.00 0.00 64 733.1
20260831021235 15 177 9.7 12.9 0.00 0.00 0.00 66 732.8
20260831020730 15 177 8.0 12.9 0.00 0.00 0.00 66 732.8
20260831020230 15 187 6.4 12.9 0.00 0.00 0.00 66 732.8
20260831015733 15 186 6.4 11.3 0.00 0.00 0.00 65 732.8
20260831015233 15 201 6.4 12.9 0.00 0.00 0.00 64 732.8
20260831014730 15 194 8.0 16.1 0.00 0.00 0.00 63 732.8
20260831014230 15 194 9.7 16.1 0.00 0.00 0.00 62 732.8
20260831013733 16 210 4.8 14.5 0.00 0.00 0.00 59 732.8
20260831013230 16 200 6.4 17.7 0.00 0.00 0.00 57 732.8
20260831012733 16 199 6.4 14.5 0.00 0.00 0.00 59 732.8
20260831012233 16 217 4.8 12.9 0.00 0.00 0.00 60 732.8
20260831011730 16 198 6.4 16.1 0.00 0.00 0.00 57 732.8
20260831011233 16 234 1.6 16.1 0.00 0.00 0.00 61 732.8
20260831010733 16 199 9.7 16.1 0.00 0.00 0.00 56 732.8
20260831010233 17 202 9.7 19.3 0.00 0.00 0.00 59 732.8
20260831005731 17 197 9.7 19.3 0.00 0.00 0.00 60 732.8
20260831005230 17 223 3.2 11.3 0.00 0.00 0.00 64 732.8
20260831004730 17 224 1.6 6.4 0.00 0.00 0.00 68 733.1
20260831004230 17 251 1.6 8.0 0.00 0.00 0.00 65 733.1
20260831003733 17 307 3.2 14.5 0.00 0.00 0.00 68 733.1
20260831003233 17 279 1.6 11.3 0.00 0.00 0.00 75 733.1
20260831002730 17 60 1.6 8.0 0.00 0.00 0.00 81 733.1
20260831002233 17 341 1.6 9.7 0.00 0.00 0.00 89 733.1
20260831001733 16 36 1.6 6.4 0.00 0.00 0.00 90 733.1
20260831001230 17 3 1.6 6.4 0.00 0.00 0.00 88 733.1
20260831000733 16 238 1.6 11.3 0.00 0.00 0.00 95 733.1
20260831000233 15 358 6.4 11.3 0.00 0.00 0.00 93 733.1
20260830235730 15 47 3.2 11.3 0.00 0.00 0.00 100 733.1
20260830235230 15 333 4.8 17.7 0.00 0.00 0.00 100 733.1
20260830234733 16 338 8.0 17.7 0.00 0.00 0.00 91 733.1
20260830234230 17 18 3.2 16.1 0.00 0.00 0.00 84 733.1
20260830233730 17 284 4.8 16.1 0.00 0.00 0.00 72 733.1
20260830233230 18 338 6.4 16.1 0.00 0.00 0.00 65 733.1
20260830232731 19 348 4.8 11.3 0.00 0.00 0.00 61 733.1
20260830232236 19 232 1.6 9.7 0.00 0.00 0.00 61 733.1
20260830231730 19 333 1.6 9.7 0.00 0.00 0.00 60 733.1
20260830231230 19 305 3.2 16.1 0.00 0.00 0.00 64 733.5
20260830230736 19 310 4.8 12.9 0.00 0.00 0.00 63 733.5
20260830230232 19 284 3.2 12.9 0.00 0.00 0.00 60 733.1
20260830225730 18 208 1.6 14.5 0.00 0.00 0.00 61 733.1
20260830225233 18 327 3.2 11.3 0.00 0.00 0.00 62 733.1
20260830224730 18 345 6.4 14.5 0.00 0.00 0.00 65 733.5
20260830224233 18 298 3.2 12.9 0.00 0.00 0.00 63 733.5
20260830223736 17 305 4.8 11.3 0.00 0.00 0.00 70 733.5
20260830223236 16 350 4.8 12.9 0.00 0.00 0.00 73 733.5
20260830222730 17 356 6.4 12.9 0.00 0.00 0.00 70 733.5
20260830222230 17 338 3.2 11.3 0.00 0.00 0.00 71 733.8
20260830221733 17 355 6.4 11.3 0.00 0.00 0.00 71 733.8
20260830221230 16 346 4.8 12.9 0.00 0.00 0.00 73 733.8
20260830220730 16 4 6.4 12.9 0.00 0.00 0.00 72 733.8
20260830220230 17 351 8.0 16.1 0.00 0.00 0.00 69 733.8
20260830215736 17 352 6.4 16.1 0.00 0.00 0.00 70 733.8
20260830215230 18 3 8.0 14.5 0.00 0.00 0.00 68 733.8
20260830214733 17 325 4.8 16.1 0.00 0.00 0.00 68 733.8
20260830214230 18 325 4.8 14.5 0.00 0.00 0.00 66 733.8
20260830213730 19 321 6.4 12.9 0.00 0.00 0.00 65 733.8
20260830213230 19 338 4.8 12.9 0.00 0.00 0.00 64 733.8
20260830212730 19 305 6.4 14.5 0.00 0.00 0.00 64 733.8
20260830212230 18 277 1.6 9.7 0.00 0.00 0.00 64 734.2
20260830211733 19 304 1.6 9.7 0.00 0.00 0.00 62 734.2
20260830211230 19 331 3.2 8.0 0.00 0.00 0.00 62 734.2
20260830210730 19 274 1.6 11.3 0.00 0.00 0.00 61 734.2
20260830210230 19 287 1.6 11.3 0.00 0.00 0.00 59 734.2
20260830205733 18 290 3.2 16.1 0.00 0.00 0.00 61 734.2
20260830205230 18 307 6.4 16.1 0.00 0.00 0.00 61 734.2
20260830204733 18 319 4.8 16.1 0.00 0.00 0.00 60 734.2
20260830204230 18 337 6.4 16.1 0.00 0.00 0.00 64 734.2
20260830203730 18 323 8.0 17.7 0.00 0.00 0.00 65 734.2
20260830203230 18 329 6.4 16.1 0.00 0.00 0.00 57 734.2
20260830202733 19 321 4.8 12.9 0.00 0.00 0.00 56 734.2
20260830202230 19 304 4.8 19.3 0.00 0.00 0.00 57 734.2
20260830201730 19 307 3.2 14.5 0.00 0.00 0.00 59 734.5
20260830201233 19 343 3.2 9.7 0.00 0.00 0.00 58 734.5
20260830200730 18 328 3.2 19.3 0.00 0.00 0.00 57 734.5
20260830200230 18 310 1.6 11.3 0.00 0.00 0.00 58 734.5
20260830195733 19 301 3.2 12.9 0.00 0.00 0.00 56 734.5
20260830195233 18 312 4.8 11.3 0.00 0.00 0.00 55 734.5
20260830194733 18 347 4.8 19.3 0.00 0.00 0.00 56 734.5
20260830194230 18 342 8.0 14.5 0.00 0.00 0.00 57 734.5
20260830193730 18 315 6.4 12.9 0.00 0.00 0.00 60 734.5
20260830193230 18 283 1.6 12.9 0.00 0.00 0.00 57 734.5
20260830192733 18 267 1.6 12.9 0.00 0.00 0.00 57 734.5
20260830192230 18 302 6.4 16.1 0.00 0.00 0.00 56 734.5
20260830191730 18 308 4.8 16.1 0.00 0.00 0.00 56 734.5
20260830191230 18 293 4.8 17.7 0.00 0.00 0.00 55 734.8
20260830190730 18 235 1.6 9.7 0.00 0.00 0.00 60 734.8
20260830190233 18 331 6.4 19.3 0.00 0.00 0.00 56 734.8
20260830185733 18 287 1.6 17.7 0.00 0.00 0.00 58 734.8
20260830185233 18 321 8.0 17.7 0.00 0.00 0.00 57 734.8
20260830184730 18 278 1.6 14.5 0.00 0.00 0.00 56 734.8
20260830184230 18 298 1.6 14.5 0.00 0.00 0.00 51 734.8
20260830183730 18 298 4.8 12.9 0.00 0.00 0.00 54 734.8
20260830183230 18 294 3.2 19.3 0.00 0.00 0.00 55 734.8
20260830182730 18 304 3.2 16.1 0.00 0.00 0.00 57 734.8
20260830182230 17 299 4.8 16.1 0.00 0.00 0.00 60 734.8
20260830181730 17 334 8.0 12.9 0.00 0.00 0.00 68 734.8
20260830181230 18 213 0.0 12.9 0.00 0.00 0.00 51 734.8
20260830180731 17 312 4.8 12.9 0.00 0.00 0.00 52 734.8
20260830180230 17 341 6.4 9.7 0.00 0.00 0.00 67 734.8
20260830175730 17 320 3.2 9.7 0.00 0.00 0.00 68 734.8
20260830175233 17 340 1.6 6.4 0.00 0.00 0.00 67 734.8
20260830174730 17 184 0.0 11.3 0.00 0.00 0.00 69 734.8
20260830174233 17 28 6.4 11.3 0.00 0.00 0.00 70 734.8
20260830173730 16 335 6.4 11.3 0.00 0.00 0.00 72 734.8
20260830173230 17 19 8.0 12.9 0.00 0.00 0.00 70 734.8
20260830172730 17 5 6.4 11.3 0.00 0.00 0.00 69 734.8
20260830172236 17 350 4.8 12.9 0.00 0.00 0.00 70 734.8
20260830171730 17 345 6.4 11.3 0.00 0.00 0.00 69 734.8
20260830171230 18 335 4.8 11.3 0.00 0.00 0.00 63 734.8
20260830170730 19 282 1.6 6.4 0.00 0.00 0.00 46 734.8
20260830170236 18 234 0.0 9.7 0.00 0.00 0.00 48 734.8
20260830165730 18 207 3.2 12.9 0.00 0.00 0.00 48 734.8
20260830165233 18 198 1.6 11.3 0.00 0.00 0.00 47 734.5
20260830164730 18 205 3.2 9.7 0.00 0.00 0.00 47 734.8
20260830164230 18 227 0.0 9.7 0.00 0.00 0.00 48 734.8
20260830163738 18 261 0.0 8.0 0.00 0.00 0.00 47 734.5
20260830163230 18 179 1.6 6.4 0.00 0.00 0.00 46 734.8
20260830162730 18 187 3.2 9.7 0.00 0.00 0.00 47 734.5
20260830162233 18 146 0.0 6.4 0.00 0.00 0.00 47 734.5
20260830161733 17 195 3.2 8.0 0.00 0.00 0.00 49 734.5
20260830161233 17 187 3.2 12.9 0.00 0.00 0.00 47 734.5
20260830160730 17 191 3.2 11.3 0.00 0.00 0.00 48 734.5
20260830160233 17 180 4.8 11.3 0.00 0.00 0.00 46 734.5
20260830155730 17 184 6.4 11.3 0.00 0.00 0.00 48 734.5
20260830155230 16 186 4.8 11.3 0.00 0.00 0.00 49 734.5
20260830154730 16 190 6.4 12.9 0.00 0.00 0.00 49 734.5
20260830154230 16 192 6.4 11.3 0.00 0.00 0.00 48 734.5
20260830153730 16 182 8.0 12.9 0.00 0.00 0.00 47 734.5
20260830153233 16 189 6.4 11.3 0.00 0.00 0.00 48 734.5
20260830152730 16 194 6.4 9.7 0.00 0.00 0.00 49 734.5
20260830152230 16 188 6.4 9.7 0.00 0.00 0.00 47 734.5
20260830151730 16 184 8.0 11.3 0.00 0.00 0.00 47 734.2
20260830151230 17 186 6.4 9.7 0.00 0.00 0.00 46 734.5
20260830150730 17 208 1.6 6.4 0.00 0.00 0.00 46 734.5
20260830150233 17 100 0.0 3.2 0.00 0.00 0.00 51 734.5
20260830145730 16 15 1.6 6.4 0.00 0.00 0.00 50 734.5
20260830145236 16 19 3.2 6.4 0.00 0.00 0.00 50 734.5
20260830144733 16 354 3.2 4.8 0.00 0.00 0.00 48 734.5
20260830144230 16 7 1.6 4.8 0.00 0.00 0.00 46 734.5
20260830143733 17 4 3.2 4.8 0.00 0.00 0.00 46 734.5
20260830143233 17 283 0.0 4.8 0.00 0.00 0.00 48 734.5
20260830142736 16 172 0.0 1.6 0.00 0.00 0.00 45 734.5
20260830142236 16 195 0.0 1.6 0.00 0.00 0.00 45 734.2
20260830141733 16 181 1.6 3.2 0.00 0.00 0.00 45 734.2
20260830141230 16 177 1.6 3.2 0.00 0.00 0.00 45 734.5
20260830140733 16 175 1.6 3.2 0.00 0.00 0.00 46 734.5
20260830140233 16 174 1.6 1.6 0.00 0.00 0.00 46 734.5
20260830135730 16 195 0.0 1.6 0.00 0.00 0.00 45 734.5
20260830135233 16 86 0.0 1.6 0.00 0.00 0.00 46 734.5
20260830134733 16 103 0.0 4.8 0.00 0.00 0.00 45 734.5
20260830134234 16 178 3.2 4.8 0.00 0.00 0.00 46 734.2
20260830133733 16 177 3.2 6.4 0.00 0.00 0.00 46 734.2
20260830133230 16 186 3.2 9.7 0.00 0.00 0.00 46 734.2
20260830132733 16 187 4.8 8.0 0.00 0.00 0.00 46 734.2
20260830132236 16 191 6.4 9.7 0.00 0.00 0.00 46 734.2
20260830131730 16 187 6.4 9.7 0.00 0.00 0.00 46 734.2
20260830131233 16 179 6.4 11.3 0.00 0.00 0.00 46 734.2
20260830130730 16 183 8.0 9.7 0.00 0.00 0.00 46 733.8
20260830130238 16 180 8.0 11.3 0.00 0.00 0.00 46 733.8
20260830125730 16 181 8.0 12.9 0.00 0.00 0.00 46 733.8
20260830125230 16 184 8.0 11.3 0.00 0.00 0.00 46 733.8
20260830124738 16 189 8.0 11.3 0.00 0.00 0.00 46 733.8
20260830124230 16 190 8.0 11.3 0.00 0.00 0.00 46 733.8
20260830123736 16 189 8.0 12.9 0.00 0.00 0.00 46 733.8
20260830123230 16 193 8.0 12.9 0.00 0.00 0.00 46 733.8
20260830122730 16 193 8.0 11.3 0.00 0.00 0.00 46 733.8
20260830122233 15 196 6.4 12.9 0.00 0.00 0.00 46 733.8
20260830121730 15 195 8.0 12.9 0.00 0.00 0.00 46 733.8
20260830121230 15 198 6.4 11.3 0.00 0.00 0.00 46 733.8
20260830120730 15 196 6.4 12.9 0.00 0.00 0.00 46 733.8
20260830120230 15 196 6.4 12.9 0.00 0.00 0.00 46 733.8
20260830115730 15 196 8.0 14.5 0.00 0.00 0.00 46 733.8
20260830115230 15 197 6.4 14.5 0.00 0.00 0.00 46 733.8
20260830114733 15 195 8.0 14.5 0.00 0.00 0.00 47 733.8
20260830114230 15 195 8.0 12.9 0.00 0.00 0.00 48 733.8
20260830113735 15 191 9.7 14.5 0.00 0.00 0.00 47 733.8
20260830113230 15 193 8.0 14.5 0.00 0.00 0.00 47 733.8
20260830112730 15 191 9.7 14.5 0.00 0.00 0.00 47 733.8
20260830112233 15 192 9.7 14.5 0.00 0.00 0.00 47 733.8
20260830111733 15 190 11.3 16.1 0.00 0.00 0.00 47 733.8
20260830111230 15 190 11.3 16.1 0.00 0.00 0.00 47 734.2
20260830110733 15 190 11.3 16.1 0.00 0.00 0.00 47 734.2
20260830110233 15 189 11.3 16.1 0.00 0.00 0.00 47 734.2
20260830105730 15 191 9.7 14.5 0.00 0.00 0.00 47 734.2
20260830105233 15 190 9.7 14.5 0.00 0.00 0.00 47 734.2
20260830104730 15 190 9.7 14.5 0.00 0.00 0.00 47 734.2
20260830104233 15 189 9.7 12.9 0.00 0.00 0.00 48 734.2
20260830103730 15 188 9.7 12.9 0.00 0.00 0.00 48 734.2
20260830103230 15 191 9.7 12.9 0.00 0.00 0.00 48 734.2
20260830102730 15 188 9.7 14.5 0.00 0.00 0.00 48 734.2
20260830102230 15 191 11.3 14.5 0.00 0.00 0.00 48 734.2
20260830101733 15 189 11.3 14.5 0.00 0.00 0.00 48 734.2
20260830101233 15 188 11.3 16.1 0.00 0.00 0.00 48 734.2
20260830100730 15 187 12.9 14.5 0.00 0.00 0.00 48 734.2
20260830100233 15 188 12.9 16.1 0.00 0.00 0.00 47 734.2
20260830095733 15 188 12.9 16.1 0.00 0.00 0.00 47 734.2
20260830095230 15 188 12.9 16.1 0.00 0.00 0.00 47 734.2
20260830094733 15 187 12.9 16.1 0.00 0.00 0.00 47 734.2
20260830094230 15 188 11.3 16.1 0.00 0.00 0.00 47 734.2
20260830093730 16 187 11.3 16.1 0.00 0.00 0.00 46 734.2
20260830093233 16 186 12.9 14.5 0.00 0.00 0.00 46 734.2
20260830092736 15 187 11.3 16.1 0.00 0.00 0.00 46 734.2
20260830092230 15 183 11.3 16.1 0.00 0.00 0.00 46 734.2
20260830091730 15 184 12.9 14.5 0.00 0.00 0.00 46 734.2
20260830091234 15 185 11.3 14.5 0.00 0.00 0.00 46 734.2
20260830090733 15 185 12.9 16.1 0.00 0.00 0.00 46 734.2
20260830090234 16 184 11.3 16.1 0.00 0.00 0.00 46 734.2
20260830085731 16 183 11.3 17.7 0.00 0.00 0.00 46 734.2
20260830085230 16 187 11.3 17.7 0.00 0.00 0.00 45 734.2
20260830084730 15 191 11.3 17.7 0.00 0.00 0.00 46 734.2
20260830084231 16 187 11.3 16.1 0.00 0.00 0.00 47 734.2
20260830083733 16 185 11.3 16.1 0.00 0.00 0.00 47 734.2
20260830083239 16 188 12.9 16.1 0.00 0.00 0.00 47 734.2
20260830082730 16 188 11.3 17.7 0.00 0.00 0.00 48 734.2
20260830082230 16 189 11.3 16.1 0.00 0.00 0.00 48 734.2
20260830081733 16 190 9.7 16.1 0.00 0.00 0.00 48 734.2
20260830081233 15 188 11.3 16.1 0.00 0.00 0.00 49 734.2
20260830080730 16 189 11.3 16.1 0.00 0.00 0.00 49 734.5
20260830080233 16 193 9.7 16.1 0.00 0.00 0.00 49 734.2
20260830075730 16 190 9.7 14.5 0.00 0.00 0.00 50 734.5
20260830075231 16 187 11.3 14.5 0.00 0.00 0.00 50 734.5
20260830074730 16 190 11.3 17.7 0.00 0.00 0.00 51 734.5
20260830074230 16 188 11.3 16.1 0.00 0.00 0.00 53 734.5
20260830073730 16 189 11.3 16.1 0.00 0.00 0.00 53 734.5
20260830073230 16 189 11.3 16.1 0.00 0.00 0.00 54 734.5
20260830072736 16 188 11.3 14.5 0.00 0.00 0.00 54 734.5
20260830072230 16 188 11.3 14.5 0.00 0.00 0.00 53 734.5
20260830071733 16 187 11.3 14.5 0.00 0.00 0.00 53 734.5
20260830071230 16 186 11.3 14.5 0.00 0.00 0.00 53 734.5
20260830070730 16 185 11.3 14.5 0.00 0.00 0.00 53 734.5
20260830070230 16 184 11.3 14.5 0.00 0.00 0.00 52 734.5
20260830065733 16 185 11.3 14.5 0.00 0.00 0.00 51 734.8
20260830065230 16 184 9.7 12.9 0.00 0.00 0.00 51 734.8
20260830064733 16 183 9.7 12.9 0.00 0.00 0.00 50 734.8
20260830064230 16 179 9.7 11.3 0.00 0.00 0.00 49 734.8